Time,TemperatureF,DewpointF,PressureIn,WindDirection,WindDirectionDegrees,WindSpeedMPH,WindSpeedGustMPH,Humidity,HourlyPrecipIn,Conditions,Clouds,dailyrainin,SolarRadiationWatts/m^2,SoftwareType,DateUTC
2013-06-14 00:02:00,74.0,67.0,29.94,NW,315,0.0,0.0,79,0.00,,,0.00,0.000000,,2013-06-14 05:02:00,
2013-06-14 00:11:00,74.0,67.0,29.94,NW,315,0.0,0.0,79,0.00,,,0.00,0.000000,,2013-06-14 05:11:00,
2013-06-14 00:22:00,74.0,67.0,29.95,NW,315,0.0,0.0,80,0.00,,,0.00,0.000000,,2013-06-14 05:22:00,
2013-06-14 00:34:00,73.0,67.0,29.95,NW,315,0.0,0.0,82,0.00,,,0.00,0.000000,,2013-06-14 05:34:00,
2013-06-14 00:43:00,73.0,67.0,29.95,NW,315,0.0,0.0,82,0.00,,,0.00,0.000000,,2013-06-14 05:43:00,
2013-06-14 00:52:00,73.0,68.0,29.94,NW,315,0.0,0.0,83,0.00,,,0.00,0.000000,,2013-06-14 05:52:00,
2013-06-14 01:02:00,72.0,67.0,29.94,NW,315,0.0,0.0,83,0.00,,,0.00,0.000000,,2013-06-14 06:02:00,
2013-06-14 01:12:00,72.0,67.0,29.94,NW,315,0.0,0.0,83,0.00,,,0.00,0.000000,,2013-06-14 06:12:00,
2013-06-14 01:22:00,72.0,67.0,29.95,NW,315,0.0,0.0,84,0.00,,,0.00,0.000000,,2013-06-14 06:22:00,
2013-06-14 01:33:00,71.0,67.0,29.95,NW,315,0.0,0.0,86,0.00,,,0.00,0.000000,,2013-06-14 06:33:00,
2013-06-14 01:43:00,71.0,67.0,29.95,NW,315,0.0,0.0,86,0.00,,,0.00,0.000000,,2013-06-14 06:43:00,
2013-06-14 01:52:00,70.0,66.0,29.94,NW,315,0.0,1.0,88,0.00,,,0.00,0.000000,,2013-06-14 06:52:00,
2013-06-14 02:02:00,69.0,66.0,29.96,NW,315,0.0,0.0,89,0.00,,,0.00,0.000000,,2013-06-14 07:02:00,
2013-06-14 02:12:00,69.0,66.0,29.96,NW,315,0.0,0.0,89,0.00,,,0.00,0.000000,,2013-06-14 07:12:00,
2013-06-14 02:22:00,69.0,66.0,29.96,NW,315,0.0,0.0,90,0.00,,,0.00,0.000000,,2013-06-14 07:22:00,
2013-06-14 02:33:00,68.0,65.0,29.97,NW,315,0.0,0.0,90,0.00,,,0.00,0.000000,,2013-06-14 07:33:00,
2013-06-14 02:43:00,68.0,65.0,29.97,NW,315,0.0,0.0,90,0.00,,,0.00,0.000000,,2013-06-14 07:43:00,
2013-06-14 02:53:00,68.0,65.0,29.97,NW,315,0.0,0.0,91,0.00,,,0.00,0.000000,,2013-06-14 07:53:00,
2013-06-14 03:02:00,67.0,64.0,29.97,NW,315,0.0,0.0,91,0.00,,,0.00,0.000000,,2013-06-14 08:02:00,
2013-06-14 03:12:00,67.0,64.0,29.97,NW,315,0.0,0.0,91,0.00,,,0.00,0.000000,,2013-06-14 08:12:00,
2013-06-14 03:23:00,67.0,64.0,29.97,NW,315,0.0,0.0,91,0.00,,,0.00,0.000000,,2013-06-14 08:23:00,
2013-06-14 03:33:00,66.0,64.0,29.98,NW,315,0.0,0.0,93,0.00,,,0.00,0.000000,,2013-06-14 08:33:00,
2013-06-14 03:43:00,66.0,64.0,29.98,NW,315,0.0,0.0,93,0.00,,,0.00,0.000000,,2013-06-14 08:43:00,
2013-06-14 03:53:00,66.0,64.0,29.97,NW,315,0.0,0.0,94,0.00,,,0.00,0.000000,,2013-06-14 08:53:00,
2013-06-14 04:02:00,66.0,64.0,29.97,NW,315,0.0,0.0,94,0.00,,,0.00,0.000000,,2013-06-14 09:02:00,
2013-06-14 04:12:00,66.0,64.0,29.97,NW,315,0.0,0.0,94,0.00,,,0.00,0.000000,,2013-06-14 09:12:00,
2013-06-14 04:22:00,66.0,64.0,29.97,NW,315,0.0,0.0,94,0.00,,,0.00,0.000000,,2013-06-14 09:22:00,
2013-06-14 04:33:00,65.0,63.0,29.97,NW,315,0.0,0.0,93,0.00,,,0.00,0.000000,,2013-06-14 09:33:00,
2013-06-14 04:43:00,65.0,63.0,29.97,NW,315,0.0,0.0,93,0.00,,,0.00,0.000000,,2013-06-14 09:43:00,
2013-06-14 04:53:00,65.0,63.0,29.98,NW,315,0.0,0.0,94,0.00,,,0.00,0.000000,,2013-06-14 09:53:00,
2013-06-14 05:01:00,64.0,62.0,29.98,NW,315,0.0,0.0,94,0.00,,,0.00,0.000000,,2013-06-14 10:01:00,
2013-06-14 05:11:00,64.0,62.0,29.98,NW,315,0.0,0.0,94,0.00,,,0.00,0.000000,,2013-06-14 10:11:00,
2013-06-14 05:22:00,64.0,62.0,29.99,NW,315,0.0,0.0,94,0.00,,,0.00,0.000000,,2013-06-14 10:22:00,
2013-06-14 05:34:00,64.0,63.0,29.98,NW,315,0.0,0.0,95,0.00,,,0.00,0.000000,,2013-06-14 10:34:00,
2013-06-14 05:43:00,64.0,63.0,29.98,NW,315,0.0,0.0,95,0.00,,,0.00,0.000000,,2013-06-14 10:43:00,
2013-06-14 05:53:00,64.0,63.0,29.98,NW,315,0.0,1.0,95,0.00,,,0.00,0.000000,,2013-06-14 10:53:00,
2013-06-14 06:02:00,64.0,63.0,29.99,NW,315,0.0,0.0,95,0.00,,,0.00,0.000000,,2013-06-14 11:02:00,
2013-06-14 06:11:00,64.0,63.0,29.99,NW,315,0.0,0.0,95,0.00,,,0.00,0.000000,,2013-06-14 11:11:00,
2013-06-14 06:23:00,64.0,63.0,29.99,NW,315,0.0,0.0,96,0.00,,,0.00,0.000000,,2013-06-14 11:23:00,
2013-06-14 06:32:00,64.0,63.0,30.00,North,349,0.0,0.0,96,0.00,,,0.00,7.000000,,2013-06-14 11:32:00,
2013-06-14 06:43:00,64.0,63.0,30.00,North,349,0.0,0.0,96,0.00,,,0.00,7.000000,,2013-06-14 11:43:00,
2013-06-14 06:52:00,63.0,62.0,30.00,NNW,348,0.0,0.0,95,0.00,,,0.00,12.000000,,2013-06-14 11:52:00,
2013-06-14 07:02:00,64.0,63.0,30.01,NNW,348,0.0,0.0,96,0.00,,,0.00,19.000000,,2013-06-14 12:02:00,
2013-06-14 07:12:00,64.0,63.0,30.01,NNW,348,0.0,0.0,96,0.00,,,0.00,19.000000,,2013-06-14 12:12:00,
2013-06-14 07:22:00,64.0,63.0,30.01,NNW,348,0.0,0.0,95,0.00,,,0.00,25.000000,,2013-06-14 12:22:00,
2013-06-14 07:32:00,64.0,63.0,30.01,NNW,348,0.0,0.0,96,0.00,,,0.00,32.000000,,2013-06-14 12:32:00,
2013-06-14 07:43:00,64.0,63.0,30.01,NNW,348,0.0,0.0,96,0.00,,,0.00,32.000000,,2013-06-14 12:43:00,
2013-06-14 07:52:00,64.0,63.0,30.01,NNW,348,0.0,0.0,96,0.00,,,0.00,37.000000,,2013-06-14 12:52:00,
2013-06-14 08:02:00,65.0,64.0,30.02,NNW,348,0.0,0.0,97,0.00,,,0.00,44.000000,,2013-06-14 13:02:00,
2013-06-14 08:11:00,65.0,64.0,30.02,NNW,348,0.0,0.0,97,0.00,,,0.00,44.000000,,2013-06-14 13:11:00,
2013-06-14 08:22:00,66.0,65.0,30.02,NNW,348,0.0,0.0,97,0.00,,,0.00,49.000000,,2013-06-14 13:22:00,
2013-06-14 08:33:00,67.0,66.0,30.02,NNW,348,0.0,0.0,96,0.00,,,0.00,56.000000,,2013-06-14 13:33:00,
2013-06-14 08:43:00,67.0,66.0,30.02,NNW,348,0.0,0.0,96,0.00,,,0.00,56.000000,,2013-06-14 13:43:00,
2013-06-14 08:53:00,68.0,67.0,30.02,NNW,348,0.0,1.0,95,0.00,,,0.00,56.000000,,2013-06-14 13:53:00,
2013-06-14 09:02:00,69.0,67.0,30.02,NNW,348,0.0,0.0,94,0.00,,,0.00,62.000000,,2013-06-14 14:02:00,
2013-06-14 09:11:00,69.0,67.0,30.02,NNW,348,0.0,0.0,94,0.00,,,0.00,62.000000,,2013-06-14 14:11:00,
2013-06-14 09:22:00,70.0,67.0,30.03,NNW,348,0.0,1.0,91,0.00,,,0.00,67.000000,,2013-06-14 14:22:00,
2013-06-14 09:34:00,72.0,69.0,30.02,NNW,348,0.0,2.0,89,0.00,,,0.00,83.000000,,2013-06-14 14:34:00,
2013-06-14 09:43:00,72.0,69.0,30.02,NNW,348,0.0,2.0,89,0.00,,,0.00,83.000000,,2013-06-14 14:43:00,
2013-06-14 09:52:00,73.0,69.0,30.02,WNW,288,0.0,2.0,86,0.00,,,0.00,90.000000,,2013-06-14 14:52:00,
2013-06-14 10:01:00,75.0,70.0,30.02,WNW,288,0.0,3.0,85,0.00,,,0.00,98.000000,,2013-06-14 15:01:00,
2013-06-14 10:11:00,75.0,70.0,30.02,WNW,288,0.0,3.0,85,0.00,,,0.00,98.000000,,2013-06-14 15:11:00,
2013-06-14 10:23:00,76.0,69.0,30.02,WNW,288,0.0,1.0,80,0.00,,,0.00,111.000000,,2013-06-14 15:23:00,
2013-06-14 10:33:00,77.0,69.0,30.02,South,169,0.0,2.0,76,0.00,,,0.00,137.000000,,2013-06-14 15:33:00,
2013-06-14 10:44:00,77.0,69.0,30.02,South,169,0.0,2.0,76,0.00,,,0.00,137.000000,,2013-06-14 15:44:00,
2013-06-14 10:53:00,79.0,69.0,30.02,SSE,163,0.0,1.0,71,0.00,,,0.00,598.000000,,2013-06-14 15:53:00,
2013-06-14 11:01:00,80.0,68.0,30.02,SE,134,0.0,3.0,68,0.00,,,0.00,633.000000,,2013-06-14 16:01:00,
2013-06-14 11:11:00,80.0,68.0,30.02,SE,134,0.0,3.0,68,0.00,,,0.00,633.000000,,2013-06-14 16:11:00,
2013-06-14 11:22:00,81.0,69.0,30.02,South,187,0.0,3.0,66,0.00,,,0.00,663.000000,,2013-06-14 16:22:00,
2013-06-14 11:33:00,82.0,68.0,30.01,South,171,0.0,3.0,62,0.00,,,0.00,657.000000,,2013-06-14 16:33:00,
2013-06-14 11:43:00,82.0,68.0,30.01,South,171,0.0,3.0,62,0.00,,,0.00,657.000000,,2013-06-14 16:43:00,
2013-06-14 11:53:00,83.0,68.0,30.01,South,188,0.0,4.0,60,0.00,,,0.00,679.000000,,2013-06-14 16:53:00,
2013-06-14 12:02:00,83.0,68.0,30.00,SSW,202,0.0,3.0,60,0.00,,,0.00,754.000000,,2013-06-14 17:02:00,
2013-06-14 12:11:00,83.0,68.0,30.00,SSW,202,0.0,3.0,60,0.00,,,0.00,754.000000,,2013-06-14 17:11:00,
2013-06-14 12:22:00,84.0,68.0,30.00,SSW,200,0.0,4.0,59,0.00,,,0.00,847.000000,,2013-06-14 17:22:00,
2013-06-14 12:34:00,85.0,68.0,30.00,SSW,195,0.0,3.0,56,0.00,,,0.00,933.000000,,2013-06-14 17:34:00,
2013-06-14 12:43:00,85.0,68.0,30.00,SSW,195,0.0,3.0,56,0.00,,,0.00,933.000000,,2013-06-14 17:43:00,
2013-06-14 12:53:00,85.0,67.0,29.99,SSW,196,0.0,2.0,55,0.00,,,0.00,954.000000,,2013-06-14 17:53:00,
2013-06-14 13:02:00,85.0,67.0,29.99,SSW,196,0.0,2.0,55,0.00,,,0.00,954.000000,,2013-06-14 18:02:00,
2013-06-14 13:11:00,86.0,69.0,30.00,SSW,207,0.0,2.0,58,0.00,,,0.00,965.000000,,2013-06-14 18:11:00,
2013-06-14 13:22:00,86.0,69.0,30.00,SSW,207,0.0,2.0,58,0.00,,,0.00,965.000000,,2013-06-14 18:22:00,
2013-06-14 13:32:00,86.0,69.0,30.00,SSW,207,0.0,2.0,58,0.00,,,0.00,965.000000,,2013-06-14 18:32:00,
2013-06-14 13:43:00,88.0,68.0,29.99,South,175,0.0,3.0,51,0.00,,,0.00,962.000000,,2013-06-14 18:43:00,
2013-06-14 13:52:00,89.0,68.0,29.99,South,175,0.0,3.0,50,0.00,,,0.00,965.000000,,2013-06-14 18:52:00,
2013-06-14 14:01:00,89.0,68.0,29.99,South,175,0.0,3.0,50,0.00,,,0.00,965.000000,,2013-06-14 19:01:00,
2013-06-14 14:11:00,88.0,69.0,29.99,North,350,0.0,3.0,54,0.00,,,0.00,953.000000,,2013-06-14 19:11:00,
2013-06-14 14:22:00,89.0,68.0,29.98,NNE,14,0.0,2.0,51,0.00,,,0.00,932.000000,,2013-06-14 19:22:00,
2013-06-14 14:32:00,89.0,68.0,29.98,NNE,14,0.0,2.0,51,0.00,,,0.00,932.000000,,2013-06-14 19:32:00,
2013-06-14 14:43:00,90.0,68.0,29.97,NNE,13,0.0,1.0,49,0.00,,,0.00,919.000000,,2013-06-14 19:43:00,
2013-06-14 14:53:00,90.0,71.0,29.97,ESE,107,0.0,2.0,53,0.00,,,0.00,902.000000,,2013-06-14 19:53:00,
2013-06-14 15:02:00,90.0,71.0,29.97,ESE,107,0.0,2.0,53,0.00,,,0.00,902.000000,,2013-06-14 20:02:00,
2013-06-14 15:11:00,91.0,70.0,29.96,SE,132,0.0,2.0,51,0.00,,,0.00,872.000000,,2013-06-14 20:11:00,
2013-06-14 15:22:00,90.0,68.0,29.96,South,182,0.0,4.0,48,0.00,,,0.00,854.000000,,2013-06-14 20:22:00,
2013-06-14 15:33:00,90.0,68.0,29.96,South,182,0.0,4.0,48,0.00,,,0.00,854.000000,,2013-06-14 20:33:00,
2013-06-14 15:43:00,91.0,71.0,29.96,North,5,0.0,3.0,52,0.00,,,0.00,830.000000,,2013-06-14 20:43:00,
2013-06-14 15:53:00,91.0,70.0,29.95,North,355,0.0,3.0,50,0.00,,,0.00,798.000000,,2013-06-14 20:53:00,
2013-06-14 16:02:00,91.0,70.0,29.95,North,355,0.0,3.0,50,0.00,,,0.00,798.000000,,2013-06-14 21:02:00,
2013-06-14 16:11:00,91.0,69.0,29.95,North,355,0.0,3.0,49,0.00,,,0.00,766.000000,,2013-06-14 21:11:00,
2013-06-14 16:22:00,92.0,71.0,29.95,WSW,244,0.0,2.0,50,0.00,,,0.00,729.000000,,2013-06-14 21:22:00,
2013-06-14 16:34:00,92.0,71.0,29.95,WSW,244,0.0,2.0,50,0.00,,,0.00,729.000000,,2013-06-14 21:34:00,
2013-06-14 16:42:00,92.0,71.0,29.94,West,263,0.0,3.0,50,0.00,,,0.00,687.000000,,2013-06-14 21:42:00,
2013-06-14 16:52:00,91.0,70.0,29.93,West,272,0.0,2.0,51,0.00,,,0.00,643.000000,,2013-06-14 21:52:00,
2013-06-14 17:01:00,91.0,70.0,29.93,West,272,0.0,2.0,51,0.00,,,0.00,643.000000,,2013-06-14 22:01:00,
2013-06-14 17:11:00,91.0,70.0,29.94,WSW,242,0.0,2.0,50,0.00,,,0.00,601.000000,,2013-06-14 22:11:00,
2013-06-14 17:22:00,91.0,71.0,29.93,WSW,242,0.0,2.0,53,0.00,,,0.00,554.000000,,2013-06-14 22:22:00,
2013-06-14 17:33:00,91.0,71.0,29.93,WSW,242,0.0,2.0,53,0.00,,,0.00,554.000000,,2013-06-14 22:33:00,
2013-06-14 17:43:00,91.0,73.0,29.93,WSW,242,0.0,2.0,55,0.00,,,0.00,501.000000,,2013-06-14 22:43:00,
2013-06-14 17:53:00,91.0,71.0,29.92,WSW,244,0.0,4.0,52,0.00,,,0.00,461.000000,,2013-06-14 22:53:00,
2013-06-14 18:02:00,91.0,71.0,29.92,WSW,244,0.0,4.0,52,0.00,,,0.00,461.000000,,2013-06-14 23:02:00,
2013-06-14 18:11:00,90.0,70.0,29.92,WSW,244,0.0,1.0,52,0.00,,,0.00,102.000000,,2013-06-14 23:11:00,
2013-06-14 18:22:00,90.0,69.0,29.92,West,263,0.0,3.0,51,0.00,,,0.00,97.000000,,2013-06-14 23:22:00,
2013-06-14 18:33:00,90.0,69.0,29.92,West,263,0.0,3.0,51,0.00,,,0.00,97.000000,,2013-06-14 23:33:00,
2013-06-14 18:43:00,89.0,69.0,29.92,West,263,0.0,2.0,52,0.00,,,0.00,91.000000,,2013-06-14 23:43:00,
2013-06-14 18:52:00,89.0,69.0,29.92,West,263,0.0,3.0,52,0.00,,,0.00,84.000000,,2013-06-14 23:52:00,
2013-06-14 19:01:00,89.0,69.0,29.92,West,263,0.0,3.0,52,0.00,,,0.00,84.000000,,2013-06-15 00:01:00,
2013-06-14 19:11:00,88.0,69.0,29.92,West,263,0.0,2.0,54,0.00,,,0.00,86.000000,,2013-06-15 00:11:00,
2013-06-14 19:22:00,88.0,70.0,29.92,West,261,0.0,1.0,55,0.00,,,0.00,118.000000,,2013-06-15 00:22:00,
2013-06-14 19:34:00,88.0,70.0,29.92,West,261,0.0,1.0,55,0.00,,,0.00,118.000000,,2013-06-15 00:34:00,
2013-06-14 19:43:00,88.0,70.0,29.93,West,269,0.0,2.0,55,0.00,,,0.00,104.000000,,2013-06-15 00:43:00,
2013-06-14 19:52:00,88.0,70.0,29.93,West,269,0.0,2.0,55,0.00,,,0.00,104.000000,,2013-06-15 00:52:00,
2013-06-14 20:01:00,87.0,69.0,29.93,West,269,0.0,1.0,56,0.00,,,0.00,60.000000,,2013-06-15 01:01:00,
2013-06-14 20:11:00,86.0,69.0,29.93,WSW,238,0.0,1.0,58,0.00,,,0.00,40.000000,,2013-06-15 01:11:00,
2013-06-14 20:22:00,86.0,69.0,29.93,WSW,238,0.0,1.0,58,0.00,,,0.00,40.000000,,2013-06-15 01:22:00,
2013-06-14 20:33:00,85.0,70.0,29.92,WSW,238,0.0,2.0,60,0.00,,,0.00,21.000000,,2013-06-15 01:33:00,
2013-06-14 20:43:00,85.0,70.0,29.92,WSW,238,0.0,2.0,60,0.00,,,0.00,21.000000,,2013-06-15 01:43:00,
2013-06-14 20:54:00,83.0,69.0,29.92,SW,232,0.0,1.0,62,0.00,,,0.00,5.000000,,2013-06-15 01:54:00,
2013-06-14 21:02:00,82.0,69.0,29.93,SW,232,0.0,0.0,64,0.00,,,0.00,0.000000,,2013-06-15 02:02:00,
2013-06-14 21:11:00,81.0,69.0,29.94,SW,232,0.0,0.0,66,0.00,,,0.00,0.000000,,2013-06-15 02:11:00,
2013-06-14 21:23:00,81.0,69.0,29.94,SW,232,0.0,0.0,66,0.00,,,0.00,0.000000,,2013-06-15 02:23:00,
2013-06-14 21:33:00,80.0,68.0,29.94,SW,232,0.0,0.0,68,0.00,,,0.00,0.000000,,2013-06-15 02:33:00,
2013-06-14 21:43:00,78.0,69.0,29.95,SW,232,0.0,0.0,73,0.00,,,0.00,0.000000,,2013-06-15 02:43:00,
2013-06-14 21:53:00,78.0,69.0,29.95,SW,232,0.0,0.0,73,0.00,,,0.00,0.000000,,2013-06-15 02:53:00,
2013-06-14 22:01:00,78.0,69.0,29.95,SW,232,0.0,0.0,73,0.00,,,0.00,0.000000,,2013-06-15 03:01:00,
2013-06-14 22:11:00,76.0,69.0,29.97,SW,232,0.0,0.0,78,0.00,,,0.00,0.000000,,2013-06-15 03:11:00,
2013-06-14 22:24:00,75.0,68.0,29.97,SW,232,0.0,0.0,79,0.00,,,0.00,0.000000,,2013-06-15 03:24:00,
2013-06-14 22:32:00,75.0,68.0,29.97,SW,232,0.0,0.0,79,0.00,,,0.00,0.000000,,2013-06-15 03:32:00,
2013-06-14 22:44:00,75.0,68.0,29.97,SW,232,0.0,0.0,80,0.00,,,0.00,0.000000,,2013-06-15 03:44:00,
2013-06-14 22:52:00,74.0,68.0,29.98,SW,232,0.0,0.0,81,0.00,,,0.00,0.000000,,2013-06-15 03:52:00,
2013-06-14 23:02:00,74.0,68.0,29.98,SW,232,0.0,0.0,81,0.00,,,0.00,0.000000,,2013-06-15 04:02:00,
2013-06-14 23:12:00,73.0,68.0,29.98,SW,232,0.0,0.0,84,0.00,,,0.00,0.000000,,2013-06-15 04:12:00,
2013-06-14 23:22:00,72.0,68.0,29.98,SW,232,0.0,0.0,86,0.00,,,0.00,0.000000,,2013-06-15 04:22:00,
2013-06-14 23:34:00,72.0,68.0,29.98,SW,232,0.0,0.0,86,0.00,,,0.00,0.000000,,2013-06-15 04:34:00,
2013-06-14 23:43:00,72.0,68.0,29.98,SW,232,0.0,0.0,86,0.00,,,0.00,0.000000,,2013-06-15 04:43:00,
2013-06-14 23:53:00,71.0,67.0,29.98,SW,232,0.0,1.0,88,0.00,,,0.00,0.000000,,2013-06-15 04:53:00,